Year,Month,Day,Hour,Minute,Value (Times are PST for windgust in km/hr)
2013,03,20,08,41,32.20
2013,03,20,08,42,32.20
2013,03,20,08,43,30.60
2013,03,20,08,44,27.40
2013,03,20,08,45,24.20
2013,03,20,08,46,29.00
2013,03,20,08,47,32.20
2013,03,20,08,48,29.00
2013,03,20,08,49,27.40
2013,03,20,08,50,25.70
2013,03,20,08,51,24.20
2013,03,20,08,52,22.50
2013,03,20,08,53,22.50
2013,03,20,08,54,22.50
2013,03,20,08,55,22.50
2013,03,20,08,56,22.50
2013,03,20,08,57,22.50
2013,03,20,08,58,22.50
2013,03,20,08,59,22.50
2013,03,20,09,00,22.50
2013,03,20,09,01,22.50
2013,03,20,10,08,22.50
2013,03,20,10,09,24.20
2013,03,20,10,10,24.20
2013,03,20,10,11,27.40
2013,03,20,10,12,30.60
2013,03,20,10,13,30.60
2013,03,20,10,14,32.20
2013,03,20,10,15,20.90
2013,03,20,10,16,29.00
2013,03,20,10,17,29.00
2013,03,20,10,18,25.70
2013,03,20,10,19,27.40
2013,03,20,10,20,24.20
2013,03,20,10,21,25.70
2013,03,20,10,22,30.60
2013,03,20,10,23,29.00
2013,03,20,10,24,29.00
2013,03,20,10,25,25.70
2013,03,20,10,26,19.30
2013,03,20,10,27,24.20
2013,03,20,10,28,24.20
2013,03,20,10,29,20.90
2013,03,20,10,30,22.50
2013,03,20,10,31,22.50
2013,03,20,10,32,27.40
2013,03,20,10,33,22.50
2013,03,20,10,34,22.50
2013,03,20,10,35,17.70
2013,03,20,10,36,17.70
2013,03,20,10,37,27.40
2013,03,20,10,38,33.80
2013,03,20,10,39,32.20
2013,03,20,10,40,30.60
2013,03,20,10,41,33.80
2013,03,20,10,42,25.70
2013,03,20,10,43,24.20
2013,03,20,10,44,22.50
2013,03,20,10,45,24.20
2013,03,20,10,46,22.50
2013,03,20,10,47,24.20
2013,03,20,10,48,25.70
2013,03,20,10,49,24.20
2013,03,20,10,50,24.20
2013,03,20,10,51,25.70
2013,03,20,10,52,22.50
2013,03,20,10,53,20.90
2013,03,20,10,54,27.40
2013,03,20,10,55,32.20
2013,03,20,10,56,29.00
2013,03,20,10,57,30.60
2013,03,20,10,58,30.60
2013,03,20,10,59,32.20
2013,03,20,11,00,30.60
2013,03,20,11,01,37.00
2013,03,20,11,02,35.40
2013,03,20,11,03,30.60
2013,03,20,11,04,30.60
2013,03,20,11,05,27.40
2013,03,20,11,06,29.00
2013,03,20,11,07,24.20
2013,03,20,11,08,33.80
2013,03,20,11,09,35.40
2013,03,20,11,10,30.60
2013,03,20,11,11,32.20
2013,03,20,11,12,30.60
2013,03,20,11,13,25.70
2013,03,20,11,14,30.60
2013,03,20,11,15,24.20
2013,03,20,11,16,19.30
2013,03,20,11,17,25.70
2013,03,20,11,18,25.70
2013,03,20,11,19,27.40
2013,03,20,11,20,29.00
2013,03,20,11,21,30.60
2013,03,20,11,22,30.60
2013,03,20,11,23,33.80
2013,03,20,11,24,24.20
2013,03,20,11,25,27.40
2013,03,20,11,26,25.70
2013,03,20,11,27,30.60
2013,03,20,11,28,30.60
2013,03,20,11,29,29.00
2013,03,20,11,30,25.70
2013,03,20,11,31,25.70
2013,03,20,11,32,32.20
2013,03,20,11,33,27.40
2013,03,20,11,34,29.00
2013,03,20,11,35,20.90
2013,03,20,11,36,19.30
2013,03,20,11,37,25.70
2013,03,20,11,38,24.20
2013,03,20,11,39,17.70
2013,03,20,11,40,16.10
2013,03,20,11,41,22.50
2013,03,20,11,42,20.90
2013,03,20,11,43,24.20
2013,03,20,11,44,25.70
2013,03,20,11,45,33.80
2013,03,20,11,46,30.60
2013,03,20,11,47,35.40
2013,03,20,11,48,33.80
2013,03,20,11,49,22.50
2013,03,20,11,50,30.60
2013,03,20,11,51,30.60
2013,03,20,11,52,25.70
2013,03,20,11,53,22.50
2013,03,20,11,54,19.30
2013,03,20,11,55,17.70
2013,03,20,11,56,16.10
2013,03,20,11,57,16.10
2013,03,20,11,58,17.70
2013,03,20,11,59,17.70
2013,03,20,12,00,11.30
2013,03,20,12,01,8.10
2013,03,20,12,02,8.10
2013,03,20,12,03,8.10
2013,03,20,12,04,9.60
2013,03,20,12,05,14.50
2013,03,20,12,06,16.10
2013,03,20,12,07,20.90
2013,03,20,12,08,24.20
2013,03,20,12,09,12.90
2013,03,20,12,10,24.20
2013,03,20,12,11,30.60
2013,03,20,12,12,25.70
2013,03,20,12,13,38.60
2013,03,20,12,14,33.80
2013,03,20,12,15,30.60
2013,03,20,12,16,25.70
2013,03,20,12,17,20.90
2013,03,20,12,18,25.70
2013,03,20,12,19,20.90
2013,03,20,12,20,25.70
2013,03,20,12,21,27.40
2013,03,20,12,22,17.70
2013,03,20,12,23,17.70
2013,03,20,12,24,19.30
2013,03,20,12,25,12.90
2013,03,20,12,26,16.10
2013,03,20,12,27,22.50
2013,03,20,12,28,14.50
2013,03,20,12,29,11.30
2013,03,20,12,30,16.10
2013,03,20,12,31,17.70
2013,03,20,12,32,22.50
2013,03,20,12,33,32.20
2013,03,20,12,34,29.00
2013,03,20,12,35,19.30
2013,03,20,12,36,16.10
2013,03,20,12,37,14.50
2013,03,20,12,38,12.90
2013,03,20,12,39,14.50
2013,03,20,12,40,12.90
2013,03,20,12,41,14.50
2013,03,20,12,42,22.50
2013,03,20,12,43,20.90
2013,03,20,12,44,19.30
2013,03,20,12,45,17.70
2013,03,20,12,46,12.90
2013,03,20,12,47,25.70
2013,03,20,12,48,37.00
2013,03,20,12,49,32.20
2013,03,20,12,50,22.50
2013,03,20,12,51,32.20
2013,03,20,12,52,35.40
2013,03,20,12,53,25.70
2013,03,20,12,54,11.30
2013,03,20,12,55,17.70
2013,03,20,12,56,20.90
2013,03,20,12,57,22.50
2013,03,20,12,58,19.30
2013,03,20,12,59,25.70
2013,03,20,13,00,29.00
2013,03,20,13,01,20.90
2013,03,20,13,02,27.40
2013,03,20,13,03,24.20
2013,03,20,13,04,43.50
2013,03,20,13,05,33.80
2013,03,20,13,06,30.60
2013,03,20,13,07,30.60
2013,03,20,13,08,22.50
2013,03,20,13,09,38.60
2013,03,20,13,10,35.40
2013,03,20,13,11,32.20
2013,03,20,13,12,27.40
2013,03,20,13,13,17.70
2013,03,20,13,14,19.30
2013,03,20,13,15,29.00
2013,03,20,13,16,24.20
2013,03,20,13,17,16.10
2013,03,20,13,18,16.10
2013,03,20,13,19,11.30
2013,03,20,13,20,16.10
2013,03,20,13,21,32.20
2013,03,20,13,22,29.00
2013,03,20,13,23,24.20
2013,03,20,13,24,24.20
2013,03,20,13,25,24.20
2013,03,20,13,26,19.30
2013,03,20,13,27,35.40
2013,03,20,13,28,32.20
2013,03,20,13,29,25.70
2013,03,20,13,30,33.80
2013,03,20,13,31,37.00
2013,03,20,13,32,25.70
2013,03,20,13,33,27.40
2013,03,20,13,34,27.40
2013,03,20,13,35,33.80
2013,03,20,13,36,38.60
2013,03,20,13,37,38.60
2013,03,20,13,38,37.00
2013,03,20,13,39,27.40
2013,03,20,13,40,22.50
2013,03,20,13,41,29.00
2013,03,20,13,42,16.10
2013,03,20,13,43,14.50
2013,03,20,13,44,19.30
2013,03,20,13,45,24.20
2013,03,20,13,46,22.50
2013,03,20,13,47,20.90
2013,03,20,13,48,30.60
2013,03,20,13,49,19.30
2013,03,20,13,50,27.40
2013,03,20,13,51,32.20
2013,03,20,13,52,25.70
2013,03,20,13,53,22.50
2013,03,20,13,54,25.70
2013,03,20,13,55,29.00
2013,03,20,13,56,24.20
2013,03,20,13,57,25.70
2013,03,20,13,58,25.70
2013,03,20,13,59,20.90
2013,03,20,14,00,9.60
2013,03,20,14,01,14.50
2013,03,20,14,02,8.10
2013,03,20,14,03,6.40
2013,03,20,14,04,9.60
2013,03,20,14,05,16.10
2013,03,20,14,06,16.10
2013,03,20,14,07,17.70
2013,03,20,14,08,16.10
2013,03,20,14,09,16.10
2013,03,20,14,10,25.70
2013,03,20,14,11,27.40
2013,03,20,14,12,51.50
2013,03,20,14,13,32.20
2013,03,20,14,14,29.00
2013,03,20,14,15,25.70
2013,03,20,14,16,20.90
2013,03,20,14,17,16.10
2013,03,20,14,18,27.40
2013,03,20,14,19,27.40
2013,03,20,14,20,19.30
2013,03,20,14,21,22.50
2013,03,20,14,22,25.70
2013,03,20,14,23,40.20
2013,03,20,14,24,25.70
2013,03,20,14,25,37.00
2013,03,20,14,26,51.50
2013,03,20,14,27,37.00
2013,03,20,14,28,30.60
2013,03,20,14,29,37.00
2013,03,20,14,30,30.60
2013,03,20,14,31,22.50
2013,03,20,14,32,20.90
2013,03,20,14,33,25.70
2013,03,20,14,34,27.40
2013,03,20,14,35,49.90
2013,03,20,14,36,40.20
2013,03,20,14,37,27.40
2013,03,20,14,38,32.20
2013,03,20,14,39,25.70
2013,03,20,14,40,30.60
2013,03,20,14,41,37.00
2013,03,20,14,42,32.20
2013,03,20,14,43,45.10
2013,03,20,14,44,35.40
2013,03,20,14,45,40.20
2013,03,20,14,46,32.20
2013,03,20,14,47,24.20
2013,03,20,14,48,32.20
2013,03,20,14,49,35.40
2013,03,20,14,50,38.60
2013,03,20,14,51,45.10
2013,03,20,14,52,53.10
2013,03,20,14,53,32.20
2013,03,20,14,54,43.50
2013,03,20,14,55,37.00
2013,03,20,14,56,41.80
2013,03,20,14,57,24.20
2013,03,20,14,58,24.20
2013,03,20,14,59,45.10
2013,03,20,15,00,37.00
2013,03,20,15,01,38.60
2013,03,20,15,02,33.80
2013,03,20,15,03,27.40
2013,03,20,15,04,25.70
2013,03,20,15,05,41.80
2013,03,20,15,06,27.40
2013,03,20,15,07,41.80
2013,03,20,15,08,29.00
2013,03,20,15,09,35.40
2013,03,20,15,10,32.20
2013,03,20,15,11,24.20
2013,03,20,15,12,25.70
2013,03,20,15,13,20.90
2013,03,20,15,14,43.50
2013,03,20,15,15,38.60
2013,03,20,15,16,30.60
2013,03,20,15,17,46.70
2013,03,20,15,18,43.50
2013,03,20,15,19,40.20
2013,03,20,15,20,32.20
2013,03,20,15,21,37.00
2013,03,20,15,22,38.60
2013,03,20,15,23,43.50
2013,03,20,15,24,35.40
2013,03,20,15,25,48.30
2013,03,20,15,26,29.00
2013,03,20,15,27,32.20
2013,03,20,15,28,35.40
2013,03,20,15,29,40.20
2013,03,20,15,30,25.70
2013,03,20,15,31,33.80
2013,03,20,15,32,33.80
2013,03,20,15,33,35.40
2013,03,20,15,34,29.00
2013,03,20,15,35,35.40
2013,03,20,15,36,24.20
2013,03,20,15,37,22.50
2013,03,20,15,38,35.40
2013,03,20,15,39,25.70
2013,03,20,15,40,29.00
2013,03,20,15,41,37.00
2013,03,20,15,42,32.20
2013,03,20,15,43,27.40
2013,03,20,15,44,33.80
2013,03,20,15,45,22.50
2013,03,20,15,46,33.80
2013,03,20,15,47,30.60
2013,03,20,15,48,40.20
2013,03,20,15,49,41.80
2013,03,20,15,50,48.30
2013,03,20,15,51,35.40
2013,03,20,15,52,35.40
2013,03,20,15,53,43.50
2013,03,20,15,54,43.50
2013,03,20,15,55,37.00
2013,03,20,15,56,22.50
2013,03,20,15,57,41.80
2013,03,20,15,58,53.10
2013,03,20,15,59,48.30
2013,03,20,16,00,33.80
2013,03,20,16,01,35.40
2013,03,20,16,02,25.70
2013,03,20,16,03,35.40
2013,03,20,16,04,41.80
2013,03,20,16,05,40.20
2013,03,20,16,06,30.60
2013,03,20,16,07,38.60
2013,03,20,16,08,41.80
2013,03,20,16,09,33.80
2013,03,20,16,10,38.60
2013,03,20,16,11,56.30
2013,03,20,16,12,46.70
2013,03,20,16,13,38.60
2013,03,20,16,14,41.80
2013,03,20,16,15,41.80
2013,03,20,16,16,64.40
2013,03,20,16,17,57.90
2013,03,20,16,18,70.80
2013,03,20,16,19,57.90
2013,03,20,16,20,45.10
2013,03,20,16,21,41.80
2013,03,20,16,22,46.70
2013,03,20,16,23,53.10
2013,03,20,16,24,29.00
2013,03,20,16,25,33.80
2013,03,20,16,26,33.80
2013,03,20,16,27,37.00
2013,03,20,16,28,46.70
2013,03,20,16,29,32.20
2013,03,20,16,30,25.70
2013,03,20,16,31,30.60
2013,03,20,16,32,29.00
2013,03,20,16,33,24.20
2013,03,20,16,34,32.20
2013,03,20,16,35,33.80
2013,03,20,16,36,33.80
2013,03,20,16,37,24.20
2013,03,20,16,38,30.60
2013,03,20,16,39,30.60
2013,03,20,16,40,30.60
2013,03,20,16,41,20.90
2013,03,20,16,42,27.40
2013,03,20,16,43,27.40
2013,03,20,16,44,22.50
2013,03,20,16,45,27.40
2013,03,20,16,46,25.70
2013,03,20,16,47,25.70
2013,03,20,16,48,29.00
2013,03,20,16,49,35.40
2013,03,20,16,50,29.00
2013,03,20,16,51,29.00
2013,03,20,16,52,30.60
2013,03,20,16,53,27.40
2013,03,20,16,54,27.40
2013,03,20,16,55,24.20
2013,03,20,16,56,27.40
2013,03,20,16,57,27.40
2013,03,20,16,58,27.40
2013,03,20,16,59,20.90
2013,03,20,17,00,24.20
2013,03,20,17,01,25.70
2013,03,20,17,02,32.20
2013,03,20,17,03,33.80
2013,03,20,17,04,25.70
2013,03,20,17,05,24.20
2013,03,20,17,06,27.40
2013,03,20,17,07,27.40
2013,03,20,17,08,32.20
2013,03,20,17,09,27.40
2013,03,20,17,10,27.40
2013,03,20,17,11,29.00
2013,03,20,17,12,29.00
2013,03,20,17,13,22.50
2013,03,20,17,14,17.70
2013,03,20,17,15,12.90
2013,03,20,17,16,24.20
2013,03,20,17,17,19.30
2013,03,20,17,18,17.70
2013,03,20,17,19,22.50
2013,03,20,17,20,19.30
2013,03,20,17,21,22.50
2013,03,20,17,22,17.70
2013,03,20,17,23,17.70
2013,03,20,17,24,17.70
2013,03,20,17,25,12.90
2013,03,20,17,26,9.60
2013,03,20,17,27,14.50
2013,03,20,17,28,12.90
2013,03,20,17,29,11.30
2013,03,20,17,30,16.10
2013,03,20,17,31,11.30
2013,03,20,17,32,14.50
2013,03,20,17,33,9.60
2013,03,20,17,34,9.60
2013,03,20,17,35,11.30
2013,03,20,17,36,12.90
2013,03,20,17,37,16.10
2013,03,20,17,38,14.50
2013,03,20,17,39,16.10
2013,03,20,17,40,14.50
2013,03,20,17,41,14.50
2013,03,20,17,42,11.30
2013,03,20,17,43,9.60
2013,03,20,17,44,9.60
2013,03,20,17,45,9.60
2013,03,20,17,46,12.90
2013,03,20,17,47,11.30
2013,03,20,17,48,16.10
2013,03,20,17,49,11.30
2013,03,20,17,50,16.10
2013,03,20,17,51,14.50
2013,03,20,17,52,9.60
2013,03,20,17,53,16.10
2013,03,20,17,54,16.10
2013,03,20,17,55,14.50
2013,03,20,17,56,20.90
2013,03,20,17,57,19.30
2013,03,20,17,58,17.70
2013,03,20,17,59,16.10
2013,03,20,18,00,11.30
2013,03,20,18,01,16.10
2013,03,20,18,02,17.70
2013,03,20,18,03,12.90
2013,03,20,18,04,16.10
2013,03,20,18,05,16.10
2013,03,20,18,06,16.10
2013,03,20,18,07,20.90
2013,03,20,18,08,17.70
2013,03,20,18,09,16.10
2013,03,20,18,10,11.30
2013,03,20,18,11,19.30
2013,03,20,18,12,19.30
2013,03,20,18,13,17.70
2013,03,20,18,14,16.10
2013,03,20,18,15,24.20
2013,03,20,18,16,19.30
2013,03,20,18,17,17.70
2013,03,20,18,18,19.30
2013,03,20,18,19,19.30
2013,03,20,18,20,19.30
2013,03,20,18,21,17.70
2013,03,20,18,22,14.50
2013,03,20,18,23,11.30
2013,03,20,18,24,8.10
2013,03,20,18,25,14.50
2013,03,20,18,26,17.70
2013,03,20,18,27,14.50
2013,03,20,18,28,17.70
2013,03,20,18,29,14.50
2013,03,20,18,30,14.50
2013,03,20,18,31,11.30
2013,03,20,18,32,11.30
2013,03,20,18,33,11.30
2013,03,20,18,34,8.10
2013,03,20,18,35,14.50
2013,03,20,18,36,11.30
2013,03,20,18,37,8.10
2013,03,20,18,38,9.60
2013,03,20,18,39,19.30
2013,03,20,18,40,17.70
2013,03,20,18,41,11.30
2013,03,20,18,42,9.60
2013,03,20,18,43,8.10
2013,03,20,18,44,11.30
2013,03,20,18,45,17.70
2013,03,20,18,46,16.10
2013,03,20,18,47,9.60
2013,03,20,18,48,4.80
2013,03,20,18,49,6.40
2013,03,20,18,50,6.40
2013,03,20,18,51,8.10
2013,03,20,18,52,8.10
2013,03,20,18,53,8.10
2013,03,20,18,54,8.10
2013,03,20,18,55,8.10
2013,03,20,18,56,6.40
2013,03,20,18,57,8.10
2013,03,20,18,58,8.10
2013,03,20,18,59,14.50
2013,03,20,19,00,9.60
2013,03,20,19,01,8.10
2013,03,20,19,02,8.10
2013,03,20,19,03,8.10
2013,03,20,19,04,8.10
2013,03,20,19,05,4.80
2013,03,20,19,06,6.40
2013,03,20,19,07,4.80
2013,03,20,19,08,3.20
2013,03,20,19,09,4.80
2013,03,20,19,10,4.80
2013,03,20,19,11,4.80
2013,03,20,19,12,4.80
2013,03,20,19,13,3.20
2013,03,20,19,21,1.60
2013,03,20,19,22,4.80
2013,03,20,19,23,6.40
2013,03,20,19,24,3.20
2013,03,20,19,25,3.20
2013,03,20,19,26,3.20
2013,03,20,19,27,6.40
2013,03,20,19,28,4.80
2013,03,20,19,29,4.80
2013,03,20,19,30,1.60
2013,03,20,19,31,1.60
2013,03,20,19,32,1.60
2013,03,20,19,33,1.60
2013,03,20,19,34,1.60
2013,03,20,19,35,1.60
2013,03,20,19,36,1.60
2013,03,20,19,37,1.60
2013,03,20,19,38,1.60
2013,03,20,19,39,1.60
